Location: Palomar Mountain Lodge
(33.3110°N, 116.8495°W)
Time: 02:22:45
(UTC-07:00)

Resurs 1-3 - Pass Details

Date: 19 May 2017
Orbit: 630 x 633 km, 98.1° (Epoch: 16 October)

Event Time Altitude Azimuth Distance (km) Brightness Sun altitude
Rises 20:29:39 0° 171° (S) 2,907 6.6 -9.3°
Reaches altitude 10° 20:31:51 10° 174° (S) 2,003 5.8 -9.7°
Maximum altitude 20:36:12 72° 258° (WSW) 667 3.9 -10.5°
Drops below altitude 10° 20:40:35 10° 343° (NNW) 2,016 7.0 -11.2°
Sets 20:42:48 0° 346° (NNW) 2,928 7.8 -11.6°
